Time,TemperatureF,DewpointF,PressureIn,WindDirection,WindDirectionDegrees,WindSpeedMPH,WindSpeedGustMPH,Humidity,HourlyPrecipIn,Conditions,Clouds,dailyrainin,SoftwareType,DateUTC
2013-04-01 00:02:00,51.0,50.0,30.09,WSW,240,0.0,-999.0,95,-99.99,,,-99.99,,2013-04-01 07:02:00,
2013-04-01 00:12:00,51.0,50.0,30.09,WSW,240,0.0,-999.0,95,-99.99,,,-99.99,,2013-04-01 07:12:00,
2013-04-01 00:21:00,51.0,50.0,30.09,SW,225,1.0,-999.0,95,-99.99,,,-99.99,,2013-04-01 07:21:00,
2013-04-01 00:31:00,50.0,49.0,30.09,WSW,239,0.0,-999.0,95,-99.99,,,-99.99,,2013-04-01 07:31:00,
2013-04-01 00:42:00,50.0,49.0,30.09,WSW,239,0.0,-999.0,95,-99.99,,,-99.99,,2013-04-01 07:42:00,
2013-04-01 00:52:00,50.0,49.0,30.09,WSW,238,0.0,-999.0,95,-99.99,,,-99.99,,2013-04-01 07:52:00,
2013-04-01 01:02:00,50.0,49.0,30.09,WSW,240,0.0,-999.0,95,-99.99,,,-99.99,,2013-04-01 08:02:00,
2013-04-01 01:12:00,50.0,49.0,30.09,WSW,240,0.0,-999.0,95,-99.99,,,-99.99,,2013-04-01 08:12:00,
2013-04-01 01:21:00,50.0,49.0,30.09,WSW,240,0.0,-999.0,95,-99.99,,,-99.99,,2013-04-01 08:21:00,
2013-04-01 01:31:00,50.0,49.0,30.09,WSW,240,0.0,-999.0,96,-99.99,,,-99.99,,2013-04-01 08:31:00,
2013-04-01 01:42:00,50.0,49.0,30.09,WSW,240,0.0,-999.0,96,-99.99,,,-99.99,,2013-04-01 08:42:00,
2013-04-01 01:52:00,50.0,49.0,30.09,WSW,240,0.0,-999.0,95,-99.99,,,-99.99,,2013-04-01 08:52:00,
2013-04-01 02:02:00,50.0,49.0,30.09,SW,236,0.0,-999.0,96,-99.99,,,-99.99,,2013-04-01 09:02:00,
2013-04-01 02:11:00,50.0,49.0,30.09,SW,236,0.0,-999.0,96,-99.99,,,-99.99,,2013-04-01 09:11:00,
2013-04-01 02:21:00,50.0,49.0,30.09,SW,236,0.0,-999.0,95,-99.99,,,-99.99,,2013-04-01 09:21:00,
2013-04-01 02:32:00,50.0,49.0,30.09,WSW,237,0.0,-999.0,95,-99.99,,,-99.99,,2013-04-01 09:32:00,
2013-04-01 02:42:00,50.0,49.0,30.09,WSW,237,0.0,-999.0,95,-99.99,,,-99.99,,2013-04-01 09:42:00,
2013-04-01 02:53:00,50.0,49.0,30.08,WSW,238,0.0,-999.0,95,-99.99,,,-99.99,,2013-04-01 09:53:00,
2013-04-01 03:02:00,50.0,49.0,30.08,WSW,240,0.0,-999.0,96,-99.99,,,-99.99,,2013-04-01 10:02:00,
2013-04-01 03:12:00,50.0,49.0,30.08,WSW,240,0.0,-999.0,96,-99.99,,,-99.99,,2013-04-01 10:12:00,
2013-04-01 03:22:00,50.0,49.0,30.09,WSW,240,0.0,-999.0,96,-99.99,,,-99.99,,2013-04-01 10:22:00,
2013-04-01 03:32:00,50.0,49.0,30.08,WSW,240,0.0,-999.0,96,-99.99,,,-99.99,,2013-04-01 10:32:00,
2013-04-01 03:42:00,50.0,49.0,30.08,WSW,240,0.0,-999.0,96,-99.99,,,-99.99,,2013-04-01 10:42:00,
2013-04-01 03:53:00,50.0,49.0,30.08,WSW,239,0.0,-999.0,96,-99.99,,,-99.99,,2013-04-01 10:53:00,
2013-04-01 04:02:00,50.0,49.0,30.08,WSW,238,0.0,-999.0,96,-99.99,,,-99.99,,2013-04-01 11:02:00,
2013-04-01 04:12:00,50.0,49.0,30.08,WSW,238,0.0,-999.0,96,-99.99,,,-99.99,,2013-04-01 11:12:00,
2013-04-01 04:22:00,50.0,49.0,30.08,WSW,238,1.0,-999.0,96,-99.99,,,-99.99,,2013-04-01 11:22:00,
2013-04-01 04:32:00,50.0,49.0,30.08,SW,228,0.0,-999.0,96,-99.99,,,-99.99,,2013-04-01 11:32:00,
2013-04-01 04:42:00,50.0,49.0,30.08,SW,228,0.0,-999.0,96,-99.99,,,-99.99,,2013-04-01 11:42:00,
2013-04-01 04:53:00,50.0,49.0,30.08,SW,228,0.0,-999.0,96,-99.99,,,-99.99,,2013-04-01 11:53:00,
2013-04-01 05:02:00,50.0,49.0,30.09,SW,236,0.0,-999.0,96,-99.99,,,-99.99,,2013-04-01 12:02:00,
2013-04-01 05:11:00,50.0,49.0,30.09,SW,236,0.0,-999.0,96,-99.99,,,-99.99,,2013-04-01 12:11:00,
2013-04-01 05:22:00,50.0,49.0,30.09,SW,235,0.0,-999.0,96,-99.99,,,-99.99,,2013-04-01 12:22:00,
2013-04-01 05:32:00,50.0,49.0,30.09,SW,235,0.0,-999.0,96,-99.99,,,-99.99,,2013-04-01 12:32:00,
2013-04-01 05:42:00,50.0,49.0,30.09,SW,235,0.0,-999.0,96,-99.99,,,-99.99,,2013-04-01 12:42:00,
2013-04-01 05:52:00,50.0,49.0,30.09,SW,235,0.0,-999.0,96,-99.99,,,-99.99,,2013-04-01 12:52:00,
2013-04-01 06:02:00,50.0,49.0,30.09,SW,234,0.0,-999.0,96,-99.99,,,-99.99,,2013-04-01 13:02:00,
2013-04-01 06:11:00,50.0,49.0,30.09,SW,234,0.0,-999.0,96,-99.99,,,-99.99,,2013-04-01 13:11:00,
2013-04-01 06:21:00,50.0,49.0,30.10,SW,236,0.0,-999.0,96,-99.99,,,-99.99,,2013-04-01 13:21:00,
2013-04-01 06:32:00,50.0,49.0,30.10,SW,235,0.0,-999.0,96,-99.99,,,-99.99,,2013-04-01 13:32:00,
2013-04-01 06:42:00,50.0,49.0,30.10,SW,235,0.0,-999.0,96,-99.99,,,-99.99,,2013-04-01 13:42:00,
2013-04-01 06:52:00,50.0,49.0,30.10,SW,235,0.0,-999.0,96,-99.99,,,-99.99,,2013-04-01 13:52:00,
2013-04-01 07:02:00,50.0,49.0,30.11,SW,236,0.0,-999.0,96,-99.99,,,-99.99,,2013-04-01 14:02:00,
2013-04-01 07:11:00,50.0,49.0,30.11,SW,236,0.0,-999.0,96,-99.99,,,-99.99,,2013-04-01 14:11:00,
2013-04-01 07:21:00,50.0,49.0,30.11,SW,234,0.0,-999.0,96,-99.99,,,-99.99,,2013-04-01 14:21:00,
2013-04-01 07:32:00,50.0,49.0,30.12,SW,236,0.0,-999.0,96,-99.99,,,-99.99,,2013-04-01 14:32:00,
2013-04-01 07:42:00,50.0,49.0,30.12,SW,236,0.0,-999.0,96,-99.99,,,-99.99,,2013-04-01 14:42:00,
2013-04-01 07:52:00,50.0,49.0,30.12,SW,236,0.0,-999.0,96,-99.99,,,-99.99,,2013-04-01 14:52:00,
2013-04-01 08:01:00,50.0,49.0,30.13,SW,236,0.0,-999.0,96,-99.99,,,-99.99,,2013-04-01 15:01:00,
2013-04-01 08:12:00,50.0,49.0,30.13,SW,236,0.0,-999.0,96,-99.99,,,-99.99,,2013-04-01 15:12:00,
2013-04-01 08:22:00,51.0,50.0,30.14,SW,236,0.0,-999.0,96,-99.99,,,-99.99,,2013-04-01 15:22:00,
2013-04-01 08:33:00,51.0,50.0,30.14,SW,236,0.0,-999.0,96,-99.99,,,-99.99,,2013-04-01 15:33:00,
2013-04-01 08:42:00,51.0,50.0,30.14,SW,236,0.0,-999.0,96,-99.99,,,-99.99,,2013-04-01 15:42:00,
2013-04-01 08:53:00,51.0,50.0,30.14,SW,236,0.0,-999.0,96,-99.99,,,-99.99,,2013-04-01 15:53:00,
2013-04-01 09:02:00,51.0,50.0,30.14,SW,236,0.0,-999.0,97,-99.99,,,-99.99,,2013-04-01 16:02:00,
2013-04-01 09:12:00,51.0,50.0,30.14,SW,236,0.0,-999.0,97,-99.99,,,-99.99,,2013-04-01 16:12:00,
2013-04-01 09:22:00,52.0,51.0,30.14,SW,236,0.0,-999.0,97,-99.99,,,-99.99,,2013-04-01 16:22:00,
2013-04-01 09:32:00,53.0,52.0,30.14,WSW,238,0.0,-999.0,97,-99.99,,,-99.99,,2013-04-01 16:32:00,
2013-04-01 09:42:00,53.0,52.0,30.14,WSW,238,0.0,-999.0,97,-99.99,,,-99.99,,2013-04-01 16:42:00,
2013-04-01 09:52:00,53.0,52.0,30.14,WSW,238,0.0,-999.0,96,-99.99,,,-99.99,,2013-04-01 16:52:00,
2013-04-01 10:02:00,52.0,51.0,30.14,WSW,238,0.0,-999.0,96,-99.99,,,-99.99,,2013-04-01 17:02:00,
2013-04-01 10:12:00,52.0,51.0,30.14,WSW,238,0.0,-999.0,96,-99.99,,,-99.99,,2013-04-01 17:12:00,
2013-04-01 10:22:00,54.0,53.0,30.14,WSW,238,0.0,-999.0,97,-99.99,,,-99.99,,2013-04-01 17:22:00,
2013-04-01 10:31:00,54.0,53.0,30.14,WSW,238,0.0,-999.0,97,-99.99,,,-99.99,,2013-04-01 17:31:00,
2013-04-01 10:41:00,54.0,53.0,30.14,WSW,238,0.0,-999.0,97,-99.99,,,-99.99,,2013-04-01 17:41:00,
2013-04-01 10:52:00,57.0,55.0,30.14,WSW,243,1.0,-999.0,92,-99.99,,,-99.99,,2013-04-01 17:52:00,
2013-04-01 11:02:00,59.0,54.0,30.15,WSW,248,0.0,-999.0,84,-99.99,,,-99.99,,2013-04-01 18:02:00,
2013-04-01 11:12:00,59.0,54.0,30.15,WSW,248,0.0,-999.0,84,-99.99,,,-99.99,,2013-04-01 18:12:00,
2013-04-01 11:21:00,58.0,52.0,30.15,SW,234,0.0,-999.0,80,-99.99,,,-99.99,,2013-04-01 18:21:00,
2013-04-01 11:32:00,58.0,52.0,30.15,SW,225,0.0,-999.0,79,-99.99,,,-99.99,,2013-04-01 18:32:00,
2013-04-01 11:42:00,58.0,52.0,30.15,SW,225,0.0,-999.0,79,-99.99,,,-99.99,,2013-04-01 18:42:00,
2013-04-01 11:53:00,60.0,53.0,30.15,WSW,243,1.0,-999.0,77,-99.99,,,-99.99,,2013-04-01 18:53:00,
2013-04-01 12:02:00,61.0,53.0,30.14,SW,229,1.0,-999.0,75,-99.99,,,-99.99,,2013-04-01 19:02:00,
2013-04-01 12:12:00,61.0,53.0,30.14,SW,229,1.0,-999.0,75,-99.99,,,-99.99,,2013-04-01 19:12:00,
2013-04-01 12:22:00,61.0,52.0,30.14,WSW,254,1.0,-999.0,73,-99.99,,,-99.99,,2013-04-01 19:22:00,
2013-04-01 12:31:00,61.0,52.0,30.14,WSW,250,1.0,-999.0,73,-99.99,,,-99.99,,2013-04-01 19:31:00,
2013-04-01 12:42:00,61.0,52.0,30.14,WSW,250,1.0,-999.0,73,-99.99,,,-99.99,,2013-04-01 19:42:00,
2013-04-01 12:53:00,62.0,52.0,30.14,WSW,255,2.0,-999.0,71,-99.99,,,-99.99,,2013-04-01 19:53:00,
2013-04-01 13:01:00,62.0,53.0,30.14,WSW,240,1.0,-999.0,72,-99.99,,,-99.99,,2013-04-01 20:01:00,
2013-04-01 13:12:00,62.0,53.0,30.14,WSW,240,1.0,-999.0,72,-99.99,,,-99.99,,2013-04-01 20:12:00,
2013-04-01 13:22:00,61.0,52.0,30.14,WSW,257,1.0,-999.0,73,-99.99,,,-99.99,,2013-04-01 20:22:00,
2013-04-01 13:32:00,62.0,54.0,30.13,SW,218,1.0,-999.0,75,-99.99,,,-99.99,,2013-04-01 20:32:00,
2013-04-01 13:42:00,62.0,54.0,30.13,SW,218,1.0,-999.0,75,-99.99,,,-99.99,,2013-04-01 20:42:00,
2013-04-01 13:52:00,62.0,54.0,30.13,SW,234,1.0,-999.0,75,-99.99,,,-99.99,,2013-04-01 20:52:00,
2013-04-01 14:02:00,61.0,53.0,30.12,North,360,4.0,-999.0,75,-99.99,,,-99.99,,2013-04-01 21:02:00,
2013-04-01 14:11:00,61.0,53.0,30.12,North,360,4.0,-999.0,75,-99.99,,,-99.99,,2013-04-01 21:11:00,
2013-04-01 14:32:00,60.0,52.0,30.11,WSW,256,2.0,-999.0,76,-99.99,,,-99.99,,2013-04-01 21:32:00,
2013-04-01 14:43:00,60.0,52.0,30.11,WSW,256,2.0,-999.0,76,-99.99,,,-99.99,,2013-04-01 21:43:00,
2013-04-01 14:53:00,60.0,53.0,30.11,West,269,2.0,-999.0,78,-99.99,,,-99.99,,2013-04-01 21:53:00,
2013-04-01 15:02:00,59.0,52.0,30.10,SW,234,2.0,-999.0,79,-99.99,,,-99.99,,2013-04-01 22:02:00,
2013-04-01 15:12:00,59.0,52.0,30.10,SW,234,2.0,-999.0,79,-99.99,,,-99.99,,2013-04-01 22:12:00,
2013-04-01 15:22:00,60.0,53.0,30.10,SSW,205,0.0,-999.0,78,-99.99,,,-99.99,,2013-04-01 22:22:00,
2013-04-01 15:32:00,61.0,54.0,30.09,WSW,252,0.0,-999.0,77,-99.99,,,-99.99,,2013-04-01 22:32:00,
2013-04-01 15:42:00,61.0,54.0,30.09,WSW,252,0.0,-999.0,77,-99.99,,,-99.99,,2013-04-01 22:42:00,
2013-04-01 15:52:00,61.0,53.0,30.09,SW,227,1.0,-999.0,76,-99.99,,,-99.99,,2013-04-01 22:52:00,
2013-04-01 16:02:00,61.0,53.0,30.09,WSW,249,1.0,-999.0,76,-99.99,,,-99.99,,2013-04-01 23:02:00,
2013-04-01 16:11:00,61.0,53.0,30.09,WSW,249,1.0,-999.0,76,-99.99,,,-99.99,,2013-04-01 23:11:00,
2013-04-01 16:22:00,62.0,54.0,30.09,WSW,241,2.0,-999.0,75,-99.99,,,-99.99,,2013-04-01 23:22:00,
2013-04-01 16:32:00,62.0,53.0,30.08,WSW,239,1.0,-999.0,73,-99.99,,,-99.99,,2013-04-01 23:32:00,
2013-04-01 16:42:00,62.0,53.0,30.08,WSW,239,1.0,-999.0,73,-99.99,,,-99.99,,2013-04-01 23:42:00,
2013-04-01 16:53:00,61.0,53.0,30.08,WSW,242,1.0,-999.0,74,-99.99,,,-99.99,,2013-04-01 23:53:00,
2013-04-01 17:02:00,61.0,53.0,30.07,West,276,0.0,-999.0,76,-99.99,,,-99.99,,2013-04-02 00:02:00,
2013-04-01 17:11:00,61.0,53.0,30.07,West,276,0.0,-999.0,76,-99.99,,,-99.99,,2013-04-02 00:11:00,
2013-04-01 17:21:00,61.0,53.0,30.07,WNW,282,1.0,-999.0,74,-99.99,,,-99.99,,2013-04-02 00:21:00,
2013-04-01 17:32:00,59.0,52.0,30.07,SW,217,0.0,-999.0,77,-99.99,,,-99.99,,2013-04-02 00:32:00,
2013-04-01 17:42:00,59.0,52.0,30.07,SW,217,0.0,-999.0,77,-99.99,,,-99.99,,2013-04-02 00:42:00,
2013-04-01 17:52:00,58.0,51.0,30.07,WSW,237,1.0,-999.0,78,-99.99,,,-99.99,,2013-04-02 00:52:00,
2013-04-01 18:01:00,57.0,51.0,30.07,SW,225,1.0,-999.0,79,-99.99,,,-99.99,,2013-04-02 01:01:00,
2013-04-01 18:11:00,57.0,51.0,30.07,SW,225,1.0,-999.0,79,-99.99,,,-99.99,,2013-04-02 01:11:00,
2013-04-01 18:21:00,57.0,51.0,30.08,SW,232,0.0,-999.0,80,-99.99,,,-99.99,,2013-04-02 01:21:00,
2013-04-01 18:31:00,57.0,51.0,30.08,WSW,242,1.0,-999.0,79,-99.99,,,-99.99,,2013-04-02 01:31:00,
2013-04-01 18:42:00,57.0,51.0,30.08,WSW,242,1.0,-999.0,79,-99.99,,,-99.99,,2013-04-02 01:42:00,
2013-04-01 18:52:00,57.0,51.0,30.08,SW,215,1.0,-999.0,79,-99.99,,,-99.99,,2013-04-02 01:52:00,
2013-04-01 19:01:00,56.0,50.0,30.08,SW,232,1.0,-999.0,81,-99.99,,,-99.99,,2013-04-02 02:01:00,
2013-04-01 19:11:00,56.0,50.0,30.08,SW,232,1.0,-999.0,81,-99.99,,,-99.99,,2013-04-02 02:11:00,
2013-04-01 19:21:00,55.0,50.0,30.08,WSW,240,0.0,-999.0,83,-99.99,,,-99.99,,2013-04-02 02:21:00,
2013-04-01 19:32:00,55.0,50.0,30.08,SW,229,0.0,-999.0,84,-99.99,,,-99.99,,2013-04-02 02:32:00,
2013-04-01 19:42:00,55.0,50.0,30.08,SW,229,0.0,-999.0,84,-99.99,,,-99.99,,2013-04-02 02:42:00,
2013-04-01 19:52:00,55.0,50.0,30.08,WSW,241,0.0,-999.0,84,-99.99,,,-99.99,,2013-04-02 02:52:00,
2013-04-01 20:01:00,55.0,50.0,30.07,WSW,240,0.0,-999.0,84,-99.99,,,-99.99,,2013-04-02 03:01:00,
2013-04-01 20:11:00,55.0,50.0,30.07,WSW,240,0.0,-999.0,84,-99.99,,,-99.99,,2013-04-02 03:11:00,
2013-04-01 20:21:00,55.0,50.0,30.07,WSW,240,0.0,-999.0,84,-99.99,,,-99.99,,2013-04-02 03:21:00,
2013-04-01 20:33:00,54.0,50.0,30.06,WSW,240,0.0,-999.0,85,-99.99,,,-99.99,,2013-04-02 03:33:00,
2013-04-01 20:42:00,54.0,50.0,30.06,WSW,240,0.0,-999.0,85,-99.99,,,-99.99,,2013-04-02 03:42:00,
2013-04-01 20:53:00,54.0,50.0,30.07,SW,233,0.0,-999.0,85,-99.99,,,-99.99,,2013-04-02 03:53:00,
2013-04-01 21:02:00,54.0,50.0,30.06,SW,236,0.0,-999.0,86,-99.99,,,-99.99,,2013-04-02 04:02:00,
2013-04-01 21:12:00,54.0,50.0,30.06,SW,236,0.0,-999.0,86,-99.99,,,-99.99,,2013-04-02 04:12:00,
2013-04-01 21:22:00,54.0,50.0,30.06,SW,236,0.0,-999.0,87,-99.99,,,-99.99,,2013-04-02 04:22:00,
2013-04-01 21:32:00,54.0,50.0,30.06,SW,236,0.0,-999.0,87,-99.99,,,-99.99,,2013-04-02 04:32:00,
2013-04-01 21:42:00,54.0,50.0,30.06,SW,236,0.0,-999.0,87,-99.99,,,-99.99,,2013-04-02 04:42:00,
2013-04-01 21:53:00,52.0,49.0,30.06,WSW,237,0.0,-999.0,88,-99.99,,,-99.99,,2013-04-02 04:53:00,
2013-04-01 22:01:00,52.0,49.0,30.06,WSW,238,0.0,-999.0,89,-99.99,,,-99.99,,2013-04-02 05:01:00,
2013-04-01 22:12:00,52.0,49.0,30.06,WSW,238,0.0,-999.0,89,-99.99,,,-99.99,,2013-04-02 05:12:00,
2013-04-01 22:22:00,52.0,49.0,30.06,WSW,238,0.0,-999.0,89,-99.99,,,-99.99,,2013-04-02 05:22:00,
2013-04-01 22:32:00,51.0,48.0,30.06,WSW,238,0.0,-999.0,90,-99.99,,,-99.99,,2013-04-02 05:32:00,
2013-04-01 22:42:00,51.0,48.0,30.06,WSW,238,0.0,-999.0,90,-99.99,,,-99.99,,2013-04-02 05:42:00,
2013-04-01 22:52:00,50.0,47.0,30.07,WSW,238,0.0,-999.0,91,-99.99,,,-99.99,,2013-04-02 05:52:00,
2013-04-01 23:02:00,50.0,48.0,30.07,WSW,238,0.0,-999.0,92,-99.99,,,-99.99,,2013-04-02 06:02:00,
2013-04-01 23:11:00,50.0,48.0,30.07,WSW,238,0.0,-999.0,92,-99.99,,,-99.99,,2013-04-02 06:11:00,
2013-04-01 23:21:00,50.0,48.0,30.06,WSW,237,0.0,-999.0,92,-99.99,,,-99.99,,2013-04-02 06:21:00,
2013-04-01 23:31:00,50.0,48.0,30.06,WSW,237,0.0,-999.0,93,-99.99,,,-99.99,,2013-04-02 06:31:00,
2013-04-01 23:42:00,50.0,48.0,30.06,WSW,237,0.0,-999.0,93,-99.99,,,-99.99,,2013-04-02 06:42:00,
2013-04-01 23:52:00,50.0,48.0,30.06,WSW,237,0.0,-999.0,93,-99.99,,,-99.99,,2013-04-02 06:52:00,